{"data":{"norad_id":48653,"intl_designator":"2021-044R","name":"STARLINK-2720","alt_names":[],"object_type":"PAYLOAD","status":"ACTIVE","operator":null,"country":"US","launch_date":"2021-05-26","launch_site_code":"AFETR","launch_vehicle":null,"mission":null,"orbit_class":"UNKNOWN","rcs_meters":null,"size_class":null,"mass_kg":null,"dimensions":null,"purposes":["comms"],"wikipedia_slug":null,"has_3d_model":false,"image_url":null,"decayed_at":null,"tle_current":{"epoch":"2026-05-25T04:40:33.964320Z","epoch_age_seconds":62199,"freshness":"FRESH","line1":"1 48653U 21044R   26145.19483755  .00000770  00000+0  36570-4 0  9995","line2":"2 48653  53.1594 118.0418 0001249  87.4609 272.6535 15.31702425275541","mean_motion":15.31702425,"eccentricity":0.0001249,"inclination_deg":53.1594,"raan_deg":118.0418,"arg_perigee_deg":87.4609,"mean_anomaly_deg":272.6535,"bstar":3.657e-5,"rev_number":27554,"period_min":94.013039118875,"perigee_km":469.87734260254,"apogee_km":471.5881902702,"semimajor_km":6848.8697664364,"source":"CELESTRAK","updated_at":"2026-05-25T13:38:16.755891Z"}}}